Location: ????????
(48.4751°N, 37.6926°E)
Time: 13:38:00
(UTC+00:00)

NOSS 3-1 (C) - Pass Details

Date: 20 January 2021
Orbit: 723 x 1485 km, 63.3° (Epoch: 22 February)

Event Time Altitude Azimuth Distance (km) Brightness Sun altitude
Rises 17:35:43 0° 317° (NW) 3,949 7.3 -33.8°
Reaches altitude 10° 17:38:16 10° 313° (NW) 3,090 6.7 -34.2°
Maximum altitude 17:45:39 59° 237° (WSW) 1,501 4.5 -35.4°
Enters shadow 17:47:13 51° 198° (SSW) 1,638 4.5 -35.7°
